sat.trackr.live / text

‹ back to catalog

STARLINK-30587

NORAD 58064 · 2023-158P

PAYLOAD ACTIVE UNKNOWN

§ Identity

Operator
Country
US
Launch date
2023-10-13
Launch site
AFETR
Launch vehicle
Mass (kg)
RCS (m²)

Purposes: comms

External: N2YO · Heavens-Above · Gunter

§ Orbital elements

Epoch: 2026-09-20T08:22:14.834784Z

Period
94.27 min
Inclination
43.0037°
Eccentricity
0.0001116
Mean motion
15.27578058 rev/d
Perigee alt
482.3 km
Apogee alt
483.8 km
Semi-major
6,861.2 km
B*
-9.8253e-6
RAAN
7.4517°
Arg perigee
261.5099°
Mean anomaly
98.5627°
Rev number
16,334

§ Raw data

STARLINK-305871 58064U 23158P   26263.34878281 -.00000532  00000+0 -98253-5 0  99952 58064  43.0037   7.4517 0001116 261.5099  98.5627 15.27578058163349

JSON: /api/v1/satellites/58064 · /tle

For live sub-satellite position, see the globe view (requires WebGL).

§ Visibility from observer

Set your observer location to see the next 7 days of passes ≥ 10°. The values pass through the URL so the page stays shareable.

No JS? Fill the form by hand. The geolocation button needs JavaScript.